Weather History for Panama City Tyndall AFB, FL

Change the Weather History Date:

Thursday, November 29, 2012

  Actual Average Record
Temperature  
Mean Temperature 52 °F -  
Max Temperature 64 °F 66 °F 78 °F (2001)
Min Temperature 39 °F 47 °F 35 °F (2002)
Degree Days  
Heating Degree Days 14    
Growing Degree Days 2 (Base 50)    
Moisture  
Dew Point 47 °F    
Average Humidity 91    
Maximum Humidity 100    
Minimum Humidity 68    
Precipitation  
Precipitation 0.00 in - - ()
Sea Level Pressure  
Sea Level Pressure 30.33 in    
Wind  
Wind Speed 3 mph (NE)    
Max Wind Speed 10 mph    
Max Gust Speed -    
Visibility 8 miles    
Events      
Averages and records for this station are not official NWS values.
T = Trace of Precipitation, MM = Missing Value Source: NWS Daily Summary

Daily Weather History Graph

Daily Weather History Graph

Search for Another Location

Airport:

Trip Planner

Search our weather history database for the weather conditions in past years. The results will help you decide how hot, cold, wet, or windy it might be!

Date:

Astronomy

Nov. 29, 2012 Rise Set
Actual Time 6:19 AM CST 4:42 PM CST
Civil Twilight 5:53 AM CST 5:07 PM CST
Nautical Twilight 5:24 AM CST 5:37 PM CST
Astronomical Twilight 4:55 AM CST 6:06 PM CST
Moon 5:44 PM CST (11/29) 7:05 AM CST (11/29)
Length of Visible Light 11h 14m
Length of Day
10h 22m
Full, 99% of the Moon is Illuminated
Nov 29
Full
Dec 6
Last Quarter
Dec 13
New
Dec 19
First Quarter
Dec 28
Full

Hourly Weather History & Observations

Time (CST) Temp. Windchill Dew Point Humidity Pressure Visibility Wind Dir Wind Speed Gust Speed Precip Events Conditions
12:07 AM 41.0 °F - 41.0 °F 100% 30.35 in 6.0 mi Calm Calm - N/A   Clear
12:17 AM 41.0 °F - 41.0 °F 100% 30.34 in 5.0 mi Calm Calm - N/A   Clear
12:21 AM 41.0 °F - 41.0 °F 100% 30.34 in 5.0 mi Calm Calm - N/A   Clear
12:23 AM 41.0 °F - 41.0 °F 100% 30.34 in 4.0 mi Calm Calm - N/A   Clear
12:42 AM 41.0 °F - 41.0 °F 100% 30.33 in 2.0 mi Calm Calm - N/A   Clear
12:44 AM 41.0 °F - 41.0 °F 100% 30.33 in 2.0 mi Calm Calm - N/A   Clear
12:52 AM 41.0 °F - 39.2 °F 93% 30.33 in 3.0 mi Calm Calm - N/A   Clear
12:53 AM 41.0 °F - 39.2 °F 93% 30.33 in 4.0 mi Calm Calm - N/A   Clear
12:59 AM 41.0 °F - 39.2 °F 93% 30.34 in 4.0 mi Calm Calm - N/A   Clear
1:00 AM 39.2 °F - 39.2 °F 100% 30.34 in 5.0 mi Calm Calm - N/A   Clear
1:15 AM 41.0 °F 39.0 °F 39.2 °F 93% 30.34 in 7.0 mi NNE 3.5 mph - N/A   Scattered Clouds
1:18 AM 41.0 °F 39.0 °F 41.0 °F 100% 30.34 in 6.0 mi ENE 3.5 mph - N/A   Mostly Cloudy
1:20 AM 41.0 °F 39.0 °F 41.0 °F 100% 30.34 in 6.0 mi NE 3.5 mph - N/A   Mostly Cloudy
1:33 AM 42.8 °F 40.1 °F 42.8 °F 100% 30.33 in 4.0 mi NE 4.6 mph - N/A   Mostly Cloudy
1:36 AM 42.8 °F 40.1 °F 42.8 °F 100% 30.33 in 4.0 mi NE 4.6 mph - N/A   Scattered Clouds
1:38 AM 42.8 °F 40.1 °F 42.8 °F 100% 30.34 in 4.0 mi NE 4.6 mph - N/A   Scattered Clouds
1:39 AM 42.8 °F 41.1 °F 42.8 °F 100% 30.34 in 5.0 mi NE 3.5 mph - N/A   Scattered Clouds
1:55 AM 43.2 °F 41.5 °F 43.0 °F 99% 30.34 in 6.0 mi NE 3.5 mph - N/A   Clear
1:56 AM 42.8 °F 40.1 °F 42.8 °F 100% 30.34 in 6.0 mi NE 4.6 mph - N/A   Clear
2:05 AM 42.8 °F 41.1 °F 42.8 °F 100% 30.33 in 6.0 mi NE 3.5 mph - N/A   Clear
2:26 AM 42.8 °F 41.1 °F 42.8 °F 100% 30.34 in 6.0 mi NNE 3.5 mph - N/A   Clear
2:47 AM 42.8 °F 41.1 °F 42.8 °F 100% 30.34 in 5.0 mi NNE 3.5 mph - N/A   Partly Cloudy
2:49 AM 42.8 °F 41.1 °F 42.8 °F 100% 30.34 in 4.0 mi NNE 3.5 mph - N/A   Scattered Clouds
2:52 AM 42.8 °F - 42.8 °F 100% 30.34 in 5.0 mi Calm Calm - N/A   Scattered Clouds
2:53 AM 42.8 °F - 42.8 °F 100% 30.34 in 5.0 mi Calm Calm - N/A   Scattered Clouds
3:17 AM 44.6 °F 42.2 °F 44.6 °F 100% 30.34 in 6.0 mi NE 4.6 mph - N/A   Mostly Cloudy
3:55 AM 44.2 °F 42.7 °F 44.1 °F 99% 30.33 in 10.0 mi ENE 3.5 mph - N/A   Mostly Cloudy
3:58 AM 44.6 °F 42.2 °F 44.6 °F 100% 30.32 in 10.0 mi ENE 4.6 mph - N/A   Scattered Clouds
4:27 AM 42.8 °F 41.1 °F 42.8 °F 100% 30.33 in 10.0 mi East 3.5 mph - N/A   Mostly Cloudy
4:55 AM 44.2 °F 41.8 °F 43.7 °F 98% 30.34 in 10.0 mi East 4.6 mph - N/A   Overcast
5:55 AM 44.8 °F 40.4 °F 43.7 °F 96% 30.35 in 10.0 mi ENE 8.1 mph - N/A   Overcast
6:55 AM 45.9 °F 42.3 °F 44.6 °F 95% 30.36 in 10.0 mi ENE 6.9 mph - N/A   Mostly Cloudy
7:46 AM 48.2 °F - 46.4 °F 93% 30.37 in 10.0 mi ENE 6.9 mph - N/A   Scattered Clouds
7:55 AM 48.2 °F - 45.5 °F 90% 30.37 in 10.0 mi ENE 8.1 mph - N/A   Scattered Clouds
8:21 AM 50.0 °F - 46.4 °F 87% 30.37 in 10.0 mi ENE 6.9 mph - N/A   Mostly Cloudy
8:55 AM 52.2 °F - 48.0 °F 86% 30.38 in 10.0 mi ENE 10.4 mph - N/A   Mostly Cloudy
9:55 AM 55.4 °F - 48.9 °F 79% 30.39 in 10.0 mi ENE 9.2 mph - N/A   Mostly Cloudy
10:55 AM 58.3 °F - 50.2 °F 74% 30.37 in 10.0 mi ENE 9.2 mph - N/A   Scattered Clouds
11:37 AM 60.8 °F - 51.8 °F 72% 30.35 in 10.0 mi Variable 6.9 mph - N/A   Scattered Clouds
11:55 AM 62.4 °F - 52.3 °F 70% 30.33 in 10.0 mi NNE 9.2 mph - N/A   Clear
12:20 PM 62.6 °F - 51.8 °F 68% 30.33 in 10.0 mi NE 5.8 mph - N/A   Mostly Cloudy
12:55 PM 64.2 °F - 54.0 °F 69% 30.31 in 10.0 mi NE 9.2 mph - N/A   Scattered Clouds
1:41 PM 64.4 °F - 53.6 °F 68% 30.30 in 10.0 mi NE 3.5 mph - N/A   Mostly Cloudy
1:55 PM 64.2 °F - 54.1 °F 70% 30.29 in 10.0 mi NE 5.8 mph - N/A   Mostly Cloudy
2:55 PM 64.4 °F - 55.2 °F 72% 30.28 in 10.0 mi North 3.5 mph - N/A   Overcast
3:55 PM 62.6 °F - 55.4 °F 77% 30.29 in 10.0 mi North 4.6 mph - N/A   Overcast
4:55 PM 60.8 °F - 55.4 °F 82% 30.29 in 10.0 mi NNE 4.6 mph - N/A   Mostly Cloudy
5:01 PM 63.5 °F - 55.6 °F 75% 30.28 in 10.0 mi North 4.6 mph - N/A   Mostly Cloudy
5:07 PM 60.8 °F - 55.4 °F 82% 30.29 in 10.0 mi North 4.6 mph - N/A   Mostly Cloudy
5:15 PM 59.0 °F - 55.4 °F 88% 30.29 in 10.0 mi North 4.6 mph - N/A   Mostly Cloudy
5:25 PM 59.0 °F - 55.4 °F 88% 30.29 in 10.0 mi NNE 4.6 mph - N/A   Mostly Cloudy
5:55 PM 58.3 °F - 54.7 °F 88% 30.30 in 10.0 mi NNE 4.6 mph - N/A   Partly Cloudy
6:55 PM 57.2 °F - 54.1 °F 89% 30.30 in 10.0 mi NE 3.5 mph - N/A   Partly Cloudy
7:55 PM 56.3 °F - 53.2 °F 89% 30.30 in 10.0 mi NE 4.6 mph - N/A   Clear
8:55 PM 56.3 °F - 52.5 °F 87% 30.30 in 10.0 mi NE 6.9 mph - N/A   Clear
9:55 PM 55.2 °F - 52.2 °F 89% 30.30 in 10.0 mi NE 5.8 mph - N/A   Partly Cloudy
10:55 PM 55.6 °F - 51.4 °F 86% 30.28 in 10.0 mi NE 5.8 mph - N/A   Overcast
11:55 PM 54.9 °F - 51.8 °F 89% 30.28 in 10.0 mi ENE 5.8 mph - N/A   Mostly Cloudy